ONEWEB-0062, 45163

Orbit data source: Space-Track

ONEWEB-0062, 45163 is a payload satellite owned by One Web (UK) in LEO that was launched on Thu, 06 Feb 2020 UTC via a SOYUZ-2-1B launch vehicle from the Tyuratam Missile And Space Complex (TTMTR). Payload-class satellites include a variety of spacecraft equipped with specific instruments for various scientific and technological missions. These include communications satellites like Starlink; space stations such as the ISS; scientific satellites like the Hubble; Earth observation satellites from companies like Planet Labs, Umbra, and HawkEye 360; GPS; miniature CubeSats for education and research; and military/defense satellites.

Loading next visibility...
Identifier
45163, 2020-008AJ
Orbit
LEO
Country
Flag of UKUK
Related business
Manufacturer
One Web
Mission
Operational Commercial Communications
Bus & Motor
ARROW, Unknown motor
Mass
148 kg wet, ~140 kg dry
Launch date (UTC)
2020-02-06 (6 years ago)
Launch vehicle
SOYUZ-2-1B
Launch site
Tyuratam Missile And Space Complex (TTMTR)
Object type
Payload
Rocket body
Debris
Shape & HBR
Trap Box + 2 Pan, 2.5 m
Radar Cross Section
2.957 m², Large (>1 m²)

Expand to show TLE details & history
Last TLE update: 11 hours ago

TLE from 11 hours ago
0 ONEWEB-0062
1 45163U 20008AJ  25260.94209253 -.00000627  00000-0 -18340-2 0  9993
2 45163  87.8735  90.5534 0001578  99.5824 260.5482 13.10372159272531
Epoch: 2025-09-17T22:36Z
TLE epoch observation values (Epoch: 2025-09-17T22:36:36.794Z)
Latitude
Longitude
114.28928°
Altitude
1,224.804 km
Speed
7.242 km/s
True Right ascension
06h 02m 12s
True Declination
0° 00' 00"
Sunlit
Object was in daylight at epoch
Visualization orbit readout
Latitude
Unknown
Longitude
Unknown
Altitude
Unknown
Speed
Unknown
Apparent Right ascension
Unknown
Apparent Declination
Unknown
Sunlit
N/A
Visualization observer readout
Local Sidereal Time
02:44:06
Azimuth
Unknown
Elevation
Unknown
Doppler factor
Unknown
Orbital elements
Apogee altitude
1,220.038 km
Perigee altitude
1,217.641 km
Semi-major axis
7,596.977 km
Eccentricity
0.00016
Inclination
87.8735°
RAAN
90.5534°
Arg. of periapsis
99.5824°
True anomaly
260.53036°
Mean anomaly
260.5482°
Eccentric anomaly
260.53928°
Mean motion
3.2778 °/min
Orbital period
109.83 mins
BSTAR
-0.001834
Loading maneuver chart data...
Computing Atmospheric mass density...
Loading historical data...
Loading historical data...
Loading historical data...
Loading historical data...
Loading historical data...
Loading historical data...
Loading historical data...

Documentation

Showing up to 5 results
|